Weather reports worldwide

Advertisment
Dörnick, Germany (10150): temperature & dewpoint: 15.06.2018 23:00:00 - 21.06.2018 23:00:00 (CEST)Dörnick, Germany (10150): temperature 5cm & temperature -5cm: 15.06.2018 23:00:00 - 21.06.2018 23:00:00 (CEST)Dörnick, Germany (10150): temperature -20cm & temperature -100cm: 15.06.2018 23:00:00 - 21.06.2018 23:00:00 (CEST)Dörnick, Germany (10150): wind speed & gusts: 15.06.2018 23:00:00 - 21.06.2018 23:00:00 (CEST)Dörnick, Germany (10150): wind direction: 15.06.2018 23:00:00 - 21.06.2018 23:00:00 (CEST)Dörnick, Germany (10150): reduced air pressure: 15.06.2018 23:00:00 - 21.06.2018 23:00:00 (CEST)Dörnick, Germany (10150): visibility: 15.06.2018 23:00:00 - 21.06.2018 23:00:00 (CEST)Dörnick, Germany (10150): sunshine duration: 15.06.2018 23:00:00 - 21.06.2018 23:00:00 (CEST)Dörnick, Germany (10150): precipitation: 15.06.2018 23:00:00 - 21.06.2018 23:00:00 (CEST)
Date & Time tt [°C] td [°C] tt 5cm [°C] tt -5cm [°C] tt -20cm [°C] tt -100cm [°C] ff [km/h] ff [kn] fx [km/h] fx [kn] dd ppp [hPa] vv [km] sd [min] rr [mm]
21.06.2018 23:00:00 9,3 6,7 8,2 11,6 15,5 16,3 16 8 32 17 WSW 1014,8 40 0 0,0
21.06.2018 22:00:00 10,3 6,5 9,1 12,5 16,0 16,3 16 9 40 22 W 1014,9 47 10 0,0
21.06.2018 21:00:00 11,8 6,4 11,0 13,7 16,3 16,3 25 14 40 21 W 1014,4 20 37 0,3
21.06.2018 20:00:00 11,0 7,2 9,8 14,4 16,6 16,3 25 13 48 26 WNW 1014,3 37 27 0,0
21.06.2018 19:00:00 13,3 9,0 13,6 16,0 16,6 16,3 22 12 47 26 W 1013,9 17 52 0,0
21.06.2018 18:00:00 11,5 8,7 11,6 15,1 16,7 16,3 27 15 44 24 W 1013,5 37 14 0,0
21.06.2018 17:00:00 11,6 8,3 12,7 15,0 16,9 16,3 22 12 39 21 W 1013,5 22 14 0,7
21.06.2018 16:00:00 10,7 8,4 10,7 14,6 17,2 16,3 22 12 51 28 WNW 1013,0 26 0 0,8
21.06.2018 15:00:00 12,4 9,0 13,0 16,1 17,3 16,3 18 10 39 21 WNW 1011,0 44 12 0,1
21.06.2018 14:00:00 12,1 9,4 12,3 15,2 17,6 16,3 23 13 37 20 W 1010,3 51 0 5,4
21.06.2018 13:00:00 9,1 7,7 8,6 15,9 17,7 16,3 29 16 58 32 W 1010,5 3,8 2 0,2
21.06.2018 12:00:00 14,3 10,3 15,6 16,7 17,7 16,3 13 7 24 13 WNW 1009,7 52 2 0,0
21.06.2018 11:00:00 13,6 9,3 14,5 16,3 17,8 16,2 10 6 21 12 W 1009,9 45 0 0,0
21.06.2018 10:00:00 13,1 9,8 12,8 16,4 17,9 16,2 9 5 19 10 WNW 1010,3 29 0 0,0
21.06.2018 09:00:00 12,8 11,0 12,7 15,9 18,2 16,2 9 5 18 10 WNW 1010,1 30 0 0,0
21.06.2018 08:00:00 12,7 10,8 12,2 15,9 18,7 16,2 8 4 24 13 NW 1010,5 26 0 0,0
21.06.2018 07:00:00 12,6 10,3 11,9 16,5 19,1 16,2 19 11 33 18 NNW 1010,9 25 0 0,8
21.06.2018 06:00:00 14,4 13,6 14,0 17,3 19,5 16,2 19 11 31 17 NW 1010,9 2,3 0 1,3
21.06.2018 05:00:00 15,7 15,1 15,2 18,2 19,8 16,2 10 6 19 10 W 1011,2 4,3 0 1,4
21.06.2018 04:00:00 16,2 15,5 15,6 18,6 20,2 16,2 12 7 25 14 W 1011,9 4,5 0 1,0
21.06.2018 03:00:00 16,6 15,6 15,9 19,1 20,6 16,2 12 7 21 12 WSW 1012,7 6 0 0,0
21.06.2018 02:00:00 16,7 15,2 16,0 19,3 21,1 16,2 10 6 16 9 WSW 1013,3 10 0 0,0
21.06.2018 01:00:00 16,3 14,9 14,6 20,0 21,6 16,2 8 4 14 7 SW 1013,7 12 0 0,0
21.06.2018 00:00:00 17,0 15,2 15,4 21,0 22,1 16,2 8 4 19 11 SW 1014,2 10 0 0,0
20.06.2018 23:00:00 18,6 15,4 17,5 22,0 22,5 16,2 13 7 21 11 WSW 1014,7 12 0 0,0
20.06.2018 22:00:00 19,5 15,8 19,0 22,8 22,9 16,3 12 7 23 12 W 1015,0 10 0 0,0
20.06.2018 21:00:00 20,6 15,9 19,8 24,0 23,1 16,3 15 8 32 17 W 1014,9 11 38 0,0
20.06.2018 20:00:00 23,1 16,4 23,5 25,3 23,2 16,3 21 11 35 19 W 1014,9 10 55 0,0
20.06.2018 19:00:00 25,0 14,0 26,1 26,9 23,0 16,3 22 12 41 22 SW 1015,2 22 44 0,0
20.06.2018 18:00:00 24,8 15,1 25,0 27,0 22,6 16,3 21 11 35 19 WSW 1015,8 30 32 0,0
20.06.2018 17:00:00 24,7 14,4 25,7 27,2 22,1 16,3 21 12 39 21 SW 1016,3 16 39 0,0
20.06.2018 16:00:00 25,2 14,9 28,7 26,6 21,5 16,3 20 11 36 20 SW 1016,6 28 27 0,0
20.06.2018 15:00:00 24,7 13,9 26,6 25,9 20,7 16,3 25 14 40 22 SW 1017,3 19 24 0,0
20.06.2018 14:00:00 23,9 14,1 25,8 25,1 19,7 16,3 23 12 41 22 WSW 1017,9 25 29 0,0
20.06.2018 13:00:00 23,7 14,4 27,8 24,0 18,7 16,3 24 13 41 22 SW 1018,6 21 44 0,0
20.06.2018 12:00:00 23,4 14,8 27,2 22,2 17,6 16,3 28 15 44 24 SW 1019,1 7 60 0,0
20.06.2018 11:00:00 22,1 14,6 25,1 19,9 16,9 16,3 24 13 40 22 SW 1019,6 15 39 0,0
20.06.2018 10:00:00 19,7 14,8 21,0 18,6 16,4 16,3 19 10 36 19 SSW 1020,2 15 0 0,0
20.06.2018 09:00:00 17,9 13,3 19,2 17,1 16,0 16,3 16 9 29 15 SSW 1020,7 20 2 0,0
20.06.2018 08:00:00 16,4 12,1 17,8 15,5 15,8 16,3 16 8 21 12 SSW 1021,0 21 32 0,0
20.06.2018 07:00:00 13,0 10,4 12,5 14,2 15,9 16,3 8 4 14 7 S 1021,4 20 26 0,0
20.06.2018 06:00:00 11,6 9,9 11,0 13,2 16,2 16,3 3 2 16 9 SW 1021,6 17 16 0,0
20.06.2018 05:00:00 10,8 10,0 9,5 13,1 16,6 16,3 8 4 12 6 SSW 1021,8 17 0 0,0
20.06.2018 04:00:00 10,1 9,7 7,0 13,5 17,1 16,3 4 2 8 4 SSW 1022,1 12 0 0,0
20.06.2018 03:00:00 10,3 9,9 7,9 14,1 17,6 16,3 6 3 11 6 SW 1022,3 13 0 0,0
20.06.2018 02:00:00 9,3 8,7 7,6 14,6 18,2 16,3 6 3 8 5 SSW 1022,6 13 0 0,0
20.06.2018 01:00:00 9,7 8,9 7,5 15,5 18,8 16,3 4 2 7 4 SW 1022,7 13 0 0,0
20.06.2018 00:00:00 10,6 9,3 8,2 16,5 19,4 16,3 5 3 8 5 SW 1023,0 22 0 0,0
19.06.2018 23:00:00 11,6 9,6 9,0 17,6 20,0 16,3 4 2 14 8 WSW 1023,0 29 0 0,0
19.06.2018 22:00:00 14,3 9,2 12,8 18,8 20,5 16,4 9 5 26 14 WNW 1022,5 32 18 0,0
19.06.2018 21:00:00 16,5 8,2 16,1 19,7 20,8 16,4 20 11 32 18 W 1022,0 18 60 0,0
19.06.2018 20:00:00 18,1 8,9 18,6 21,1 21,0 16,4 21 11 37 20 W 1021,7 23 60 0,0
19.06.2018 19:00:00 19,1 8,4 20,6 23,2 20,8 16,4 19 11 40 22 W 1021,6 13 60 0,0
19.06.2018 18:00:00 20,1 10,2 22,4 23,1 20,5 16,4 21 12 45 24 W 1021,3 12 60 0,0
19.06.2018 17:00:00 20,8 10,7 23,9 22,9 20,0 16,4 19 11 46 25 W 1020,9 18 51 0,0
19.06.2018 16:00:00 20,7 12,7 23,8 21,9 19,5 16,4 24 13 39 21 W 1020,5 24 35 0,0
19.06.2018 15:00:00 20,6 14,0 23,5 20,9 19,0 16,4 23 13 41 22 WNW 1020,1 24 20 0,0
19.06.2018 14:00:00 21,2 14,2 24,9 20,9 18,4 16,4 22 12 38 20 W 1019,7 20 26 0,0
19.06.2018 13:00:00 19,9 15,1 23,0 20,2 17,9 16,4 23 12 40 22 WSW 1019,2 12 31 0,0
19.06.2018 12:00:00 18,2 15,4 19,8 18,4 17,6 16,4 22 12 35 19 WSW 1019,5 15 0 0,0
19.06.2018 11:00:00 17,3 15,1 16,9 18,1 17,4 16,4 20 11 36 20 W 1019,3 10 0 0,0
19.06.2018 10:00:00 18,1 14,4 19,0 17,7 17,1 16,4 24 13 36 19 W 1018,5 13 13 0,0
19.06.2018 09:00:00 17,0 14,5 17,4 17,0 17,0 16,4 18 10 33 18 WSW 1018,1 10 6 0,0
19.06.2018 08:00:00 16,3 14,4 17,2 16,3 17,0 16,4 18 10 32 17 SW 1017,5 9 11 0,0
19.06.2018 07:00:00 15,1 13,8 15,0 15,9 17,1 16,4 13 7 24 13 SSW 1017,4 9 0 0,0
19.06.2018 06:00:00 14,6 13,7 14,3 15,7 17,3 16,4 13 7 19 11 SSW 1017,3 7 0 0,0
19.06.2018 05:00:00 14,4 13,7 13,9 15,7 17,5 16,4 10 5 18 10 SSW 1017,2 8 0 0,0
19.06.2018 04:00:00 14,7 13,7 13,8 16,1 17,9 16,4 11 6 21 11 SW 1017,4 11 0 0,0
19.06.2018 03:00:00 14,9 14,0 14,0 16,5 18,2 16,4 9 5 19 10 WSW 1017,6 11 0 0,0
19.06.2018 02:00:00 15,3 14,0 14,0 17,1 18,5 16,4 10 5 21 11 WSW 1017,5 13 0 0,0
19.06.2018 01:00:00 15,7 14,9 15,1 17,4 18,8 16,4 11 6 20 11 SW 1017,7 9 0 0,0
19.06.2018 00:00:00 15,6 14,9 15,1 17,8 19,1 16,4 10 6 17 9 SW 1017,8 10 0 0,0
18.06.2018 23:00:00 15,7 14,7 15,0 18,3 19,4 16,5 11 6 19 10 SW 1017,7 17 0 0,0
18.06.2018 22:00:00 16,3 15,4 15,6 18,9 19,7 16,5 12 7 21 11 WSW 1017,4 8 0 0,1
18.06.2018 21:00:00 16,4 15,6 16,1 19,4 20,1 16,5 6 3 13 7 SW 1017,1 16 0 0,5
18.06.2018 20:00:00 16,5 15,7 16,1 20,0 20,3 16,5 9 5 26 14 WSW 1017,4 8 0 1,1
18.06.2018 19:00:00 16,4 15,4 16,0 21,3 20,4 16,5 18 10 36 19 W 1017,4 8 0 0,9
18.06.2018 18:00:00 19,0 14,0 19,7 21,5 20,4 16,5 18 10 29 16 SW 1017,2 20 0 0,0
18.06.2018 17:00:00 18,6 13,6 19,2 21,8 20,4 16,5 16 9 29 16 SW 1017,7 19 0 0,0
18.06.2018 16:00:00 18,4 13,4 19,9 22,0 20,3 16,5 19 10 32 17 SSW 1018,1 19 0 0,0
18.06.2018 15:00:00 17,7 13,5 18,3 22,0 20,1 16,5 17 9 39 21 SW 1018,2 16 0 0,0
18.06.2018 14:00:00 18,2 12,0 19,2 22,0 19,9 16,5 20 11 31 17 SW 1018,1 18 0 0,0
18.06.2018 13:00:00 17,4 11,6 18,8 22,2 19,5 16,5 24 13 42 23 SW 1018,4 18 0 0,0
18.06.2018 12:00:00 18,6 10,5 19,7 22,2 18,8 16,5 19 11 33 18 SW 1017,9 22 27 0,0
18.06.2018 11:00:00 18,7 10,7 22,5 20,9 18,2 16,5 20 11 34 18 SW 1018,0 18 37 0,0
18.06.2018 10:00:00 17,4 10,7 19,2 19,5 17,6 16,5 18 10 31 17 SSW 1018,0 18 40 0,0
18.06.2018 09:00:00 16,5 11,5 19,2 17,9 17,3 16,5 16 9 24 13 SSW 1018,2 15 43 0,0
18.06.2018 08:00:00 15,6 11,8 17,6 16,5 17,2 16,5 13 7 21 12 SSW 1018,2 13 51 0,0
18.06.2018 07:00:00 13,9 11,6 13,7 15,7 17,4 16,5 11 6 16 9 SSW 1018,3 20 9 0,0
18.06.2018 06:00:00 13,1 11,1 12,5 15,7 17,6 16,5 8 4 13 7 SSW 1018,3 22 0 0,0
18.06.2018 05:00:00 13,1 11,0 12,8 15,8 17,9 16,5 10 5 15 8 SSW 1018,1 25 0 0,0
18.06.2018 04:00:00 13,0 10,7 12,0 16,2 18,2 16,5 9 5 12 7 S 1017,8 24 0 0,0
18.06.2018 03:00:00 13,8 10,5 13,1 16,5 18,6 16,5 8 5 18 10 SSW 1018,1 26 0 0,0
18.06.2018 02:00:00 13,8 10,9 13,4 16,6 19,0 16,5 9 5 14 7 SSW 1018,1 22 0 0,0
18.06.2018 01:00:00 12,2 10,3 9,9 17,2 19,5 16,5 7 4 10 5 SSW 1017,8 27 0 0,0
18.06.2018 00:00:00 13,8 10,7 11,4 18,2 20,0 16,5 5 3 8 4 SW 1017,5 35 0 0,0
17.06.2018 23:00:00 15,0 10,3 13,7 19,0 20,4 16,5 5 3 14 7 WSW 1017,5 42 0 0,0
17.06.2018 22:00:00 16,0 9,3 15,0 19,9 20,8 16,5 10 5 19 10 W 1017,3 57 0 0,0
17.06.2018 21:00:00 16,9 8,7 16,4 20,8 21,1 16,5 10 5 20 11 W 1016,9 59 0 0,0
17.06.2018 20:00:00 17,4 8,4 17,2 21,8 21,2 16,5 13 7 25 14 W 1016,5 67 0 0,0
17.06.2018 19:00:00 18,4 9,5 19,0 22,8 21,1 16,5 17 9 26 14 W 1016,3 44 25 0,0
17.06.2018 18:00:00 18,5 9,3 19,9 22,8 20,9 16,5 17 9 31 17 W 1016,0 42 36 0,0
17.06.2018 17:00:00 18,5 11,4 22,0 22,1 20,8 16,5 18 10 31 17 W 1015,8 23 29 0,0
17.06.2018 16:00:00 16,7 12,8 18,9 21,9 20,6 16,5 11 6 53 29 W 1015,3 28 4 0,0
17.06.2018 15:00:00 21,1 11,8 25,4 23,1 20,0 16,5 21 11 36 19 SW 1014,0 13 41 0,0
17.06.2018 14:00:00 19,9 11,1 22,6 21,9 19,5 16,5 22 12 41 22 WSW 1013,9 10 26 0,0
17.06.2018 13:00:00 19,6 11,7 22,1 20,7 19,1 16,5 24 13 39 21 SW 1013,9 18 19 0,0
17.06.2018 12:00:00 19,6 12,6 23,1 19,7 18,8 16,5 19 11 34 18 SW 1013,6 15 17 0,0
17.06.2018 11:00:00 17,8 11,3 18,8 19,1 18,6 16,5 18 10 31 17 WSW 1013,7 22 15 0,0
17.06.2018 10:00:00 17,8 11,4 20,5 18,9 18,4 16,5 17 9 35 19 SW 1013,7 10 52 0,0
17.06.2018 09:00:00 17,3 12,4 18,8 18,3 18,2 16,5 16 8 29 16 SW 1013,5 8 58 0,0
17.06.2018 08:00:00 16,1 13,7 16,4 17,5 18,2 16,5 13 7 19 11 SW 1013,4 4,2 20 0,0
17.06.2018 07:00:00 15,3 14,7 15,5 17,1 18,4 16,5 7 4 10 5 SW 1013,3 3,2 1 0,0
17.06.2018 06:00:00 15,0 14,5 14,6 17,2 18,6 16,5 5 3 6 3 SW 1013,1 2,7 0 0,1
17.06.2018 05:00:00 14,9 14,2 14,5 17,4 18,9 16,5 5 3 8 5 SSE 1013,4 3,5 0 0,7
17.06.2018 04:00:00 15,0 14,0 14,4 17,6 19,2 16,5 5 3 21 11 W 1013,3 3,9 0 0,0
17.06.2018 03:00:00 15,9 15,4 15,5 18,0 19,5 16,5 9 5 17 9 W 1013,4 2,5 0 1,6
17.06.2018 02:00:00 15,8 15,4 15,3 18,1 19,9 16,5 2 1 8 4 NE 1013,2 2,0 0 0,5
17.06.2018 01:00:00 14,1 13,8 13,4 18,4 20,4 16,5 4 2 5 3 W 1013,1 3,2 0 0,0
17.06.2018 00:00:00 14,8 14,3 12,6 19,3 20,8 16,5 3 1 4 2 ENE 1013,1 2,8 0 0,0
16.06.2018 23:00:00 15,2 14,6 14,4 20,2 21,3 16,5 3 1 3 2 W 1013,5 4,1 0 0,0
16.06.2018 22:00:00 16,7 15,5 14,7 21,4 21,6 16,5 0 0 4 2 N 1013,6 4,6 0 0,0
16.06.2018 21:00:00 20,0 15,4 18,7 22,5 21,7 16,5 4 2 14 7 WNW 1013,0 10 0 0,0
16.06.2018 20:00:00 21,6 14,6 22,0 23,0 21,7 16,5 3 2 9 5 WSW 1012,7 17 43 0,0
16.06.2018 19:00:00 19,9 14,1 23,6 22,9 21,7 16,5 4 2 32 17 NNW 1012,5 17 2 0,0
16.06.2018 18:00:00 22,9 13,4 23,2 23,7 21,6 16,5 14 8 22 12 S 1012,5 18 8 0,0
16.06.2018 17:00:00 22,4 13,3 25,2 22,6 21,8 16,5 9 5 16 8 S 1013,0 18 28 0,0
16.06.2018 16:00:00 19,2 13,5 19,4 22,8 22,0 16,5 12 7 42 23 SSE 1013,5 20 0 0,0
16.06.2018 15:00:00 21,3 14,9 21,0 24,4 21,9 16,5 16 9 22 12 S 1013,8 22 0 0,0
16.06.2018 14:00:00 20,7 17,0 21,0 24,6 21,6 16,5 8 4 23 12 SSE 1013,9 16 0 2,2
16.06.2018 13:00:00 22,7 13,8 24,0 25,7 20,8 16,5 13 7 23 13 SE 1014,3 24 7 0,0
16.06.2018 12:00:00 22,6 13,5 26,3 24,3 20,1 16,5 14 8 23 12 SE 1015,0 16 53 0,0
16.06.2018 11:00:00 20,8 13,0 24,2 22,5 19,5 16,5 15 8 25 14 SE 1015,2 14 52 0,0
16.06.2018 10:00:00 19,3 12,4 21,9 20,7 19,1 16,5 11 6 18 10 SE 1015,6 21 3 0,0
16.06.2018 09:00:00 18,0 11,7 19,7 19,7 18,9 16,5 8 4 16 9 E 1016,0 25 30 0,0
16.06.2018 08:00:00 17,4 11,2 19,2 18,4 18,9 16,5 10 5 15 8 ESE 1016,1 23 16 0,0
16.06.2018 07:00:00 16,6 10,3 16,5 17,9 19,0 16,4 9 5 16 9 E 1016,4 34 0 0,0
16.06.2018 06:00:00 15,8 9,5 14,9 17,9 19,2 16,4 4 2 11 6 ENE 1016,7 34 0 0,0
16.06.2018 05:00:00 16,4 8,2 15,4 18,1 19,5 16,4 7 4 13 7 ENE 1016,8 43 0 0,0
16.06.2018 04:00:00 16,5 7,1 15,7 18,3 19,8 16,4 7 4 13 7 ESE 1016,8 40 0 0,0
16.06.2018 03:00:00 16,0 8,3 15,3 18,5 20,2 16,4 6 4 12 6 ESE 1017,0 42 0 0,0
16.06.2018 02:00:00 15,8 9,8 15,0 18,7 20,6 16,4 6 3 10 6 ESE 1017,2 46 0 0,0
16.06.2018 01:00:00 14,1 10,7 12,9 19,0 21,2 16,4 0 0 5 3 N 1017,3 32 0 0,0
16.06.2018 00:00:00 12,9 10,2 10,2 19,8 21,9 16,4 3 2 8 4 NE 1017,5 20 0 0,0
15.06.2018 23:00:00 13,9 10,0 10,5 21,1 22,5 16,5 4 2 8 4 ESE 1017,7 33 0 0,0

tt = temperature
td = dewpoint
tt 5cm = temperature 5cm
tt -5cm = temperature -5cm
tt -20cm = temperature -20cm
tt -100cm = temperature -100cm
ff = wind speed
fx = gusts
dd = wind direction
ppp = reduced air pressure
vv = visibility
sd = sunshine duration
rr = precipitation

Next stations